[[{"header":{"parameterUnit":"m.s-1","parameterCategory":1,"la1":30.2991,"la2":30.254,"lo1":-89.0895,"lo2":-89.0444,"dy":0.0017,"dx":0.0017,"nx":28,"ny":28,"refTime":"2023-07-19T09:00:00:Z","depth":0,"parameterNumber":2,"parameterNumberName":"U-component_of_WINDS"},"data":[0,0,0,0,0,0,0,0,0,0,0,0,0,0,0,0,0,0,0,0,0,0,0,0,0,0,0,0,0,0,0,0,0,0,0,0,0,0,0,0,0,0,0,0,0,0,0,0,0,0,0,0,0,0,0,0,0,0,2.3624,2.3624,0,2.3606,2.3606,2.3606,2.3551,2.3549,2.3548,2.3547,2.3527,2.3528,2.3528,0,0,0,0,0,0,0,0,0,0,0,0,0,2.3607,2.3608,2.3625,2.3624,2.3624,2.3606,2.3606,2.3606,2.3551,2.3549,2.3548,2.3547,2.3527,2.3528,2.3528,0,0,0,0,0,0,0,0,0,0,0,0,0,2.3605,2.3608,2.3625,2.3595,2.3592,2.3606,2.3606,2.3606,2.3551,2.3549,2.3548,2.3546,2.3527,2.3527,2.3528,2.357,0,0,2.3531,2.3531,0,0,0,0,0,0,0,0,2.3605,2.3605,2.3599,2.3597,2.3593,2.3579,2.3593,2.3594,2.3552,2.3567,2.3547,2.3545,2.3546,2.3545,2.3545,2.3569,2.3568,2.3531,2.3532,2.3532,2.3532,0,0,0,0,0,0,0,2.3605,2.3606,2.3617,2.3599,2.3596,2.3581,2.3578,2.3593,2.3566,2.3565,2.3561,2.356,2.3544,2.3545,2.3545,2.3568,2.3531,2.3532,2.3532,2.3533,2.3621,2.3622,0,0,0,0,0,0,2.361,2.3606,2.3618,2.3617,2.3595,2.3582,2.358,2.3585,2.3566,2.3562,2.3561,2.3557,2.3544,2.3544,2.3544,2.3588,2.3532,2.3533,2.3533,2.3619,2.3621,2.3623,0,0,0,0,0,0,2.361,2.3612,2.3619,2.361,2.361,2.3585,2.3591,2.3586,2.3587,2.3563,2.3558,2.3567,2.3543,2.3542,2.3563,2.3587,2.3533,2.3534,2.3617,2.362,2.3622,2.368,0,0,0,0,0,0,2.361,2.3612,2.3629,2.3611,2.3611,2.364,2.3593,2.3587,2.3589,2.3583,2.3568,2.3563,2.3541,2.3562,2.3564,2.3587,2.3535,2.3614,2.3618,2.3621,2.3675,2.3684,2.3691,0,0,0,0,0,2.3609,2.3646,2.363,2.3632,2.3632,2.3641,2.3641,2.3615,2.3591,2.3607,2.3591,2.3564,2.3584,2.3565,2.3566,2.359,2.3613,2.3617,2.3621,2.3672,2.3682,2.3691,0,0,0,0,0,0,2.3668,2.3644,2.3625,2.3658,2.3652,2.3632,2.3651,2.3628,2.3628,2.3623,2.3591,2.3587,2.3612,2.3603,2.3582,2.3627,2.3594,2.3598,2.3632,2.3642,2.3649,2.365,2.3536,0,0,0,0,0,2.3685,2.3696,2.3674,2.3705,2.3702,2.3677,2.3681,2.3661,2.3654,2.3651,2.3637,2.363,2.3634,2.3637,2.3641,2.3674,2.3668,2.3691,2.3699,2.3705,2.3709,2.3722,2.3731,2.3636,2.3636,2.3636,0,0,2.3719,2.3707,2.3717,2.3716,2.3709,2.3719,2.3676,2.369,2.3696,2.3653,2.367,2.366,2.3649,2.3676,2.3687,2.3669,2.3734,2.3711,2.3716,2.3716,2.3727,2.3736,2.3744,2.3639,2.3638,2.3638,0,0,2.3787,2.3781,2.3804,2.3797,2.3787,2.3769,2.3775,2.3758,2.3749,2.3766,2.3733,2.374,2.3749,2.3742,2.3739,2.3801,2.3775,2.3803,2.3843,2.3857,2.3864,2.387,2.3889,2.3897,2.3807,2.3807,2.3807,0,2.3831,2.3846,2.3819,2.3833,2.3832,2.3793,2.3815,2.381,2.3801,2.38,2.3781,2.3789,2.378,2.3802,2.3817,2.3817,2.382,2.3804,2.3865,2.3871,2.3877,2.3894,2.3902,2.381,2.381,2.381,2.3809,0,2.3899,2.391,2.393,2.3921,2.3923,2.3941,2.3914,2.3919,2.3898,2.3882,2.3899,2.3886,2.3883,2.3888,2.3869,2.3906,2.3895,2.3871,2.3837,2.389,2.3905,2.3912,2.3815,2.3814,2.3813,2.3812,0,0,2.4005,2.3978,2.3986,2.3979,2.3964,2.3971,2.3986,2.3984,2.3987,2.3981,2.3991,2.3998,2.3975,2.3972,2.3952,2.3964,2.4009,2.3938,2.3937,2.3949,2.4045,2.4061,2.407,2.3992,2.3993,2.3994,2.4045,0,2.4066,2.4091,2.4065,2.4094,2.4101,2.4063,2.4075,2.4066,2.4051,2.4054,2.4037,2.4041,2.4012,2.4009,2.4019,2.4001,2.4027,2.3998,2.3998,2.3999,2.4,2.4078,2.4096,2.4145,2.4051,2.4052,2.4053,0,2.4142,2.4138,2.4168,2.4147,2.4149,2.4161,2.4154,2.4159,2.4146,2.4134,2.413,2.4104,2.4115,2.4082,2.4095,2.4076,2.4074,2.4065,2.4066,2.4064,2.4028,2.4075,2.416,2.4167,2.4063,2.4062,2.4061,0,2.4211,2.4214,2.4231,2.4228,2.4205,2.4213,2.4204,2.419,2.4189,2.4183,2.4181,2.4177,2.4175,2.4171,2.4144,2.4124,2.4159,2.4125,2.4147,2.4148,2.4155,2.4155,2.4239,2.4159,2.4159,2.4159,2.4158,0,2.4281,2.43,2.4262,2.4272,2.4291,2.426,2.4279,2.4266,2.4253,2.4258,2.4225,2.4231,2.4196,2.4198,2.4177,2.4188,2.4188,2.4177,2.4171,2.4179,2.418,2.4176,2.4171,2.416,2.416,2.416,2.4159,0,2.4361,2.4337,2.4352,2.4328,2.4323,2.4337,2.4316,2.4323,2.4305,2.4312,2.4312,2.4284,2.4283,2.4256,2.4251,2.4236,2.4256,2.4245,2.426,2.4255,2.4277,2.4275,2.436,2.4368,2.4286,2.4287,2.4287,0,2.4407,2.442,2.4397,2.4398,2.439,2.4393,2.4391,2.436,2.4359,2.4344,2.4352,2.4349,2.4345,2.4345,2.4323,2.4317,2.4304,2.4334,2.4303,2.4309,2.4301,2.4299,2.4299,2.4341,2.4342,2.4342,2.4343,0,2.4488,2.4475,2.4474,2.4467,2.4466,2.446,2.4451,2.4454,2.442,2.442,2.4419,2.4415,2.4408,2.4404,2.4394,2.4383,2.4356,2.4353,2.4357,2.4364,2.4371,2.4365,2.4275,2.4351,2.435,2.435,2.4349,2.4349,2.455,2.4559,2.4543,2.4541,2.4532,2.4524,2.4528,2.451,2.4509,2.45,2.4482,2.4483,2.4466,2.445,2.4441,2.4439,2.4424,2.4431,2.4432,2.4434,2.4437,2.4373,2.4438,2.4438,2.4437,2.4437,2.4437,0,2.4627,2.4614,2.4614,2.4602,2.46,2.4576,2.4565,2.4564,2.4565,2.4553,2.4548,2.4545,2.454,2.4517,2.4509,2.4513,2.45,2.4511,2.4509,2.4506,2.4453,2.4448,2.4521,2.4521,2.4521,2.4521,2.4521,2.4521,2.4667,2.4679,2.4663,2.4668,2.4655,2.4655,2.465,2.4642,2.4631,2.4629,2.4624,2.4609,2.4591,2.4581,2.4575,2.4568,2.4566,2.458,2.4569,2.4519,2.4511,2.4503,2.4499,2.4581,2.4581,2.4623,2.4623,2.4623]},{"header":{"parameterUnit":"m.s-1","parameterCategory":1,"la1":30.2991,"la2":30.254,"lo1":-89.0895,"lo2":-89.0444,"dy":0.0017,"dx":0.0017,"nx":28,"ny":28,"refTime":"2023-07-19T09:00:00:Z","depth":0,"parameterNumber":3,"parameterNumberName":"V-component_of_WINDS"},"data":[0,0,0,0,0,0,0,0,0,0,0,0,0,0,0,0,0,0,0,0,0,0,0,0,0,0,0,0,0,0,0,0,0,0,0,0,0,0,0,0,0,0,0,0,0,0,0,0,0,0,0,0,0,0,0,0,0,0,2.9308,2.931,0,2.9441,2.9443,2.9444,2.945,2.9448,2.9447,2.9445,2.958,2.9584,2.9589,0,0,0,0,0,0,0,0,0,0,0,0,0,2.9056,2.906,2.9308,2.931,2.9312,2.9441,2.9443,2.9445,2.945,2.9448,2.9446,2.9444,2.9578,2.9584,2.959,0,0,0,0,0,0,0,0,0,0,0,0,0,2.9175,2.9062,2.9308,2.933,2.9333,2.9441,2.9443,2.9445,2.945,2.9448,2.9446,2.9444,2.9576,2.9583,2.9591,2.9685,0,0,2.9614,2.9617,0,0,0,0,0,0,0,0,2.9168,2.9184,2.9325,2.9329,2.9332,2.9427,2.9403,2.9525,2.9451,2.9406,2.9445,2.9442,2.953,2.9542,2.9572,2.9691,2.9697,2.9615,2.9619,2.9622,2.9625,0,0,0,0,0,0,0,2.916,2.9178,2.9361,2.9327,2.9332,2.9332,2.9346,2.9426,2.948,2.941,2.941,2.9426,2.9532,2.9564,2.9575,2.9699,2.9614,2.9621,2.9626,2.9629,2.9899,2.9902,0,0,0,0,0,0,2.9147,2.9171,2.9357,2.9365,2.9243,2.9338,2.9354,2.9399,2.9479,2.9489,2.9428,2.9426,2.9553,2.9566,2.958,2.9694,2.9622,2.9629,2.9634,2.9897,2.99,2.9903,0,0,0,0,0,0,2.9142,2.9164,2.9351,2.9268,2.9292,2.9345,2.9395,2.9403,2.9435,2.9493,2.9502,2.9452,2.9551,2.9569,2.9658,2.9699,2.9633,2.964,2.9894,2.9898,2.9901,2.9924,0,0,0,0,0,0,2.9135,2.9162,2.9199,2.9269,2.9297,2.9429,2.9398,2.9407,2.9448,2.9447,2.9517,2.9527,2.9551,2.9647,2.9666,2.9708,2.9646,2.989,2.9895,2.99,2.9919,2.9928,2.9935,0,0,0,0,0,2.9126,2.92,2.9201,2.9224,2.9345,2.9431,2.9447,2.9474,2.9452,2.9489,2.9525,2.9525,2.9691,2.9656,2.9677,2.9722,2.9888,2.9894,2.99,2.9916,2.9926,2.9935,0,0,0,0,0,0,2.9134,2.921,2.9212,2.9312,2.9365,2.9432,2.948,2.9484,2.9544,2.954,2.957,2.9586,2.9674,2.9707,2.9667,2.9816,2.9787,2.9797,2.9792,2.9802,2.9809,2.98,2.9652,0,0,0,0,0,2.9148,2.9213,2.9275,2.9357,2.9383,2.9427,2.9466,2.9481,2.9538,2.956,2.9604,2.9657,2.9721,2.9763,2.9826,2.9924,2.9938,2.9965,2.9972,2.9978,2.9987,3.004,3.0052,2.9922,2.9922,2.9922,0,0,2.9176,2.9226,2.9265,2.936,2.9403,2.9468,2.9446,2.9517,2.9565,2.9571,2.9658,2.9691,2.9753,2.9846,2.9889,2.9876,3.0026,2.9986,2.999,2.9996,3.0047,3.0059,3.007,2.9926,2.9926,2.9925,0,0,2.9262,2.9306,2.9379,2.9422,2.9487,2.9515,2.9532,2.9599,2.9621,2.9708,2.9713,2.977,2.9881,2.9924,2.9961,3.0059,3.006,3.0079,3.0119,3.017,3.018,3.0189,3.0223,3.0235,3.0087,3.0087,3.0087,0,2.9289,2.9389,2.9415,2.9485,2.9526,2.9534,2.9606,2.9647,2.9729,2.9756,2.974,2.9877,2.992,3.0022,3.0046,3.0076,3.0095,3.0071,3.0176,3.0186,3.0195,3.0228,3.0241,3.0089,3.0089,3.0089,3.0088,0,2.9418,2.9487,2.9537,2.9616,2.9662,2.9733,2.9769,2.9812,2.9823,2.9852,2.994,2.999,3.0062,3.0088,3.0099,3.0192,3.0181,3.017,3.0142,3.0209,3.024,3.0253,3.0091,3.0091,3.009,3.009,0,0,2.9516,2.9606,2.9624,2.9659,2.973,2.9783,2.9853,2.9924,2.996,3.0015,3.0074,3.0166,3.0156,3.0197,3.0213,3.0257,3.033,3.0241,3.0243,3.0255,3.0433,3.0441,3.0455,3.0331,3.0333,3.0335,3.0428,0,2.9608,2.9734,2.9759,2.9868,2.993,2.9937,2.9997,3.0047,3.0075,3.0131,3.0162,3.0227,3.0209,3.0233,3.0278,3.0312,3.0366,3.0306,3.0385,3.0387,3.0369,3.0472,3.0481,3.0566,3.044,3.0443,3.0444,0,2.9735,2.9793,2.9908,2.9968,2.9996,3.005,3.0115,3.0169,3.0224,3.0241,3.0286,3.0297,3.0368,3.0335,3.0432,3.039,3.0424,3.0445,3.0449,3.0458,3.042,3.0483,3.0594,3.0607,3.0464,3.0462,3.0461,0,2.9793,2.99,2.9982,3.0011,3.0085,3.0122,3.0154,3.0207,3.0247,3.0304,3.0329,3.0393,3.0428,3.0476,3.0503,3.0476,3.0598,3.0567,3.0613,3.0613,3.064,3.0638,3.0757,3.0661,3.066,3.066,3.066,0,2.9894,2.9964,3.0009,3.0059,3.0137,3.0163,3.0239,3.027,3.0317,3.0372,3.0381,3.0433,3.0465,3.0521,3.0542,3.0618,3.0634,3.0649,3.0654,3.0649,3.0647,3.0671,3.0666,3.0664,3.0663,3.0662,3.0662,0,2.9973,3.0006,3.0096,3.0157,3.0174,3.0228,3.028,3.0328,3.0355,3.0425,3.0443,3.0486,3.0552,3.0583,3.0665,3.0678,3.0765,3.0766,3.0747,3.0749,3.0793,3.0788,3.0933,3.0953,3.0843,3.0844,3.0845,0,3.0036,3.009,3.0156,3.0194,3.0227,3.0288,3.0328,3.0355,3.0397,3.0462,3.0502,3.0568,3.0623,3.0727,3.0765,3.0827,3.0829,3.0875,3.0838,3.0831,3.0829,3.0826,3.083,3.0882,3.0883,3.0884,3.0885,0,3.0144,3.0156,3.0215,3.0278,3.0326,3.0377,3.0427,3.0457,3.0492,3.0537,3.0605,3.0647,3.073,3.0795,3.0859,3.089,3.0893,3.0896,3.091,3.0905,3.0891,3.0899,3.0765,3.0893,3.0892,3.0891,3.0891,3.0891,3.0216,3.0264,3.0317,3.0381,3.0421,3.0467,3.0515,3.0548,3.0605,3.0674,3.0686,3.0757,3.0808,3.0895,3.0928,3.0983,3.0972,3.0993,3.0998,3.1002,3.1004,3.0882,3.0995,3.0995,3.0995,3.0994,3.0994,0,3.0324,3.0358,3.0416,3.0486,3.0535,3.0533,3.0588,3.0629,3.0692,3.074,3.0793,3.0869,3.0931,3.0973,3.1036,3.1072,3.1074,3.1087,3.1085,3.1092,3.1011,3.0993,3.1084,3.1084,3.1084,3.1084,3.1084,3.1084,3.0386,3.0465,3.0484,3.0583,3.0616,3.0686,3.0717,3.0759,3.0797,3.0882,3.0934,3.0961,3.1005,3.1071,3.1127,3.1138,3.116,3.1174,3.1183,3.1107,3.1098,3.1089,3.1072,3.1178,3.1178,3.126,3.1261,3.1261]}]]